Change the Weather History Date:

Friday, October 8, 2010

  Actual Average Record
Temperature  
Mean Temperature 58 °F -  
Max Temperature 66 °F 68 °F 96 °F (1999)
Min Temperature 49 °F 51 °F 37 °F (2007)
Degree Days  
Heating Degree Days 8    
Growing Degree Days 8 (Base 50)    
Moisture  
Dew Point 52 °F    
Average Humidity 79    
Maximum Humidity 100    
Minimum Humidity 60    
Precipitation  
Precipitation 0.00 in - - ()
Sea Level Pressure  
Sea Level Pressure 30.10 in    
Wind  
Wind Speed 7 mph ()    
Max Wind Speed 23 mph    
Max Gust Speed -    
Visibility 7.9 miles    
Events      
Averages and records for this station are not official NWS values.
T = Trace of Precipitation, MM = Missing Value Source: Averaged Metar Reports

Daily Weather History Graph

Daily Weather History Graph

Search for Another Location

Airport or City:

Trip Planner

Search our weather history database for the weather conditions in past years. The results will help you decide how hot, cold, wet, or windy it might be!

Date:

Astronomy

Oct. 08, 2010 Rise Set
Actual Time 5:58 AM SAST 6:38 PM SAST
Civil Twilight 5:33 AM SAST 7:03 PM SAST
Nautical Twilight 5:03 AM SAST 7:33 PM SAST
Astronomical Twilight 4:32 AM SAST 8:04 PM SAST
Moon 5:56 AM SAST (10/8) 7:41 PM SAST (10/8)
Length of Visible Light 13h 30m
Length of Day
12h 40m
New Moon, 1% of the Moon is Illuminated
Oct 8
New Moon
Oct 14
First Quarter
Oct 23
Full
Oct 30
Last Quarter
Nov 6
New

Hourly Weather History & Observations

Time (SAST) Temp. Dew Point Humidity Pressure Visibility Wind Dir Wind Speed Gust Speed Precip Events Conditions
12:00 AM 55.4 °F 51.8 °F 88% 30.01 in - NW 6.9 mph - N/A   Clear
1:00 AM 55.4 °F 51.8 °F 88% 30.01 in - NW 5.8 mph - N/A   Clear
2:00 AM 56 °F 51 °F 77% 30.01 in 12 mi WNW 5.8 mph - -  
2:00 AM 57.2 °F 50.0 °F 77% 30.01 in - WNW 4.6 mph - N/A   Clear
3:00 AM 55.4 °F 48.2 °F 77% 30.01 in - NNW 3.5 mph - N/A   Clear
4:00 AM 51.8 °F 48.2 °F 88% 30.01 in - NNE 3.5 mph - N/A   Clear
5:00 AM 52 °F 49 °F 84% 30.03 in 12 mi North 5.8 mph - -  
5:00 AM 51.8 °F 48.2 °F 88% 30.01 in - North 4.6 mph - N/A   Clear
6:00 AM 51.8 °F 48.2 °F 88% 30.04 in 6.2 mi WNW 4.6 mph - N/A   Scattered Clouds
7:00 AM 55.4 °F 51.8 °F 88% 30.04 in 6.2 mi Variable 2.3 mph - N/A   Mostly Cloudy
8:00 AM 59 °F 53 °F 75% 30.09 in 12 mi WSW 4.6 mph - -   Mostly Cloudy
8:00 AM 59.0 °F 53.6 °F 82% 30.06 in 6.2 mi WSW 4.6 mph - N/A   Mostly Cloudy
9:00 AM 62.6 °F 55.4 °F 77% 30.09 in 6.2 mi SW 17.3 mph - N/A   Mostly Cloudy
10:00 AM 62.6 °F 57.2 °F 82% 30.12 in 6.2 mi SW 18.4 mph - N/A   Mostly Cloudy
11:00 AM 63 °F 56 °F 71% 30.15 in 12 mi SW 20.7 mph - -   Mostly Cloudy
11:00 AM 62.6 °F 57.2 °F 82% 30.12 in 6.2 mi SW 20.7 mph - N/A   Scattered Clouds
12:00 PM 64.4 °F 55.4 °F 73% 30.12 in 6.2 mi SW 23.0 mph - N/A   Scattered Clouds
1:00 PM 64.4 °F 53.6 °F 68% 30.12 in 6.2 mi SW 20.7 mph - N/A   Scattered Clouds
2:00 PM 62 °F 53 °F 63% 30.14 in 12 mi SSW 20.7 mph - -   Partly Cloudy
2:00 PM 62.6 °F 51.8 °F 68% 30.12 in 6.2 mi SSW 20.7 mph - N/A   Scattered Clouds
3:00 PM 60.8 °F 50.0 °F 68% 30.12 in 6.2 mi SSW 16.1 mph - N/A   Mostly Cloudy
4:00 PM 60.8 °F 50.0 °F 68% 30.15 in 6.2 mi SSW 11.5 mph - N/A   Mostly Cloudy
5:00 PM 60 °F 50 °F 60% 30.17 in 12 mi SSW 6.9 mph - -   Mostly Cloudy
5:00 PM 59.0 °F 50.0 °F 72% 30.15 in 6.2 mi SSW 6.9 mph - N/A   Mostly Cloudy
6:00 PM 59.0 °F 50.0 °F 72% 30.18 in 6.2 mi SSW 5.8 mph - N/A   Mostly Cloudy
7:00 PM 57.2 °F 51.8 °F 82% 30.18 in 6.2 mi South 3.5 mph - N/A   Mostly Cloudy
8:00 PM 56 °F 51 °F 76% 30.20 in 12 mi Calm Calm - -   Mostly Cloudy
8:00 PM 55.4 °F 50.0 °F 82% 30.18 in 6.2 mi Calm Calm - N/A   Mostly Cloudy
9:00 PM 57.2 °F 51.8 °F 82% 30.21 in 6.2 mi Variable 2.3 mph - N/A   Overcast
10:00 PM 55.4 °F 51.8 °F 88% 30.21 in 6.2 mi North 2.3 mph - N/A   Mostly Cloudy
11:00 PM 51.8 °F 51.8 °F 100% 30.18 in - NE 2.3 mph - N/A   Clear